contact:dominique.lefevre@mio.osupytheas.fr, maurice.libes@osupytheas.fr, didier.mallarino@osupytheas.fr
Project:EMSO http://www.emso-fr.org/EMSO-France
Depth: 2436.0 m
Title:EMSO Ligure Ouest : Data MII capteur AQUADOPP
Date,Latitude,Longitude,X_East,Y_North,Z_Up,Amplitude_X,Amplitude_Y,Amplitude_Z,Batterie,SoundSpeed,Heading,Pitch,Roll,Pressure,TIS,Speed,Direction
, degrees North, degrees East, m.s-1, m.s-1,m.s-1, 1, 1, 1, Volt, m.s-1, degree, degree, degree, dbar, degree_C, m.s-1, degree
2021-09-13T00:04:03,42.805,6.029,-0.061,0.003,-0.03,100.0,100.0,100.0,13.4,1505.2,327.4,-0.8,1.8,2470.729,13.28,0.061,272.8
2021-09-13T00:07:03,42.805,6.029,-0.03,-0.025,-0.054,102.0,100.0,99.0,13.4,1505.2,327.3,-0.8,1.8,2470.682,13.28,0.039,230.2
2021-09-13T00:10:03,42.805,6.029,-0.024,-0.002,-0.055,101.0,101.0,100.0,13.4,1505.2,328.2,-0.8,1.8,2470.693,13.28,0.024,265.2
2021-09-13T00:13:03,42.805,6.029,-0.064,-0.009,-0.055,101.0,100.0,100.0,13.4,1505.2,329.1,-0.7,1.8,2470.721,13.28,0.064,262.0
2021-09-13T00:16:03,42.805,6.029,-0.035,-0.012,-0.039,101.0,102.0,100.0,13.4,1505.2,329.1,-0.8,1.8,2470.701,13.28,0.037,251.1
2021-09-13T00:19:03,42.805,6.029,-0.036,-0.01,-0.023,101.0,100.0,100.0,13.4,1505.2,325.3,-0.8,1.8,2470.687,13.28,0.037,254.5
2021-09-13T00:22:03,42.805,6.029,-0.031,-0.006,-0.024,100.0,101.0,100.0,13.4,1505.2,325.3,-0.7,1.8,2470.698,13.28,0.031,259.0
2021-09-13T00:25:03,42.805,6.029,-0.052,-0.013,-0.053,100.0,100.0,100.0,13.3,1505.2,329.4,-0.8,1.8,2470.655,13.28,0.053,256.0
2021-09-13T00:28:03,42.805,6.029,-0.062,-0.007,0.0,101.0,102.0,99.0,13.3,1505.2,325.7,-0.8,1.8,2470.698,13.28,0.062,263.6
2021-09-13T00:31:03,42.805,6.029,-0.035,0.017,0.005,100.0,101.0,100.0,13.4,1505.2,331.0,-0.7,1.8,2470.664,13.28,0.038,295.9
2021-09-13T00:34:03,42.805,6.029,-0.023,0.0,-0.016,102.0,98.0,100.0,13.4,1505.2,330.1,-0.8,1.8,2470.684,13.28,0.023,270.0
2021-09-13T00:37:03,42.805,6.029,-0.053,0.008,-0.031,103.0,101.0,99.0,13.4,1505.2,327.1,-0.8,1.8,2470.646,13.28,0.053,278.6
2021-09-13T00:40:03,42.805,6.029,-0.039,-0.007,-0.049,101.0,102.0,100.0,13.3,1505.2,329.8,-0.8,1.8,2470.639,13.28,0.039,259.8
2021-09-13T00:43:03,42.805,6.029,-0.024,-0.03,-0.05,102.0,101.0,100.0,13.3,1505.2,329.5,-0.8,1.9,2470.672,13.28,0.038,218.7
2021-09-13T00:46:03,42.805,6.029,-0.047,0.008,-0.002,100.0,101.0,101.0,13.4,1505.2,327.3,-0.7,1.8,2470.681,13.28,0.047,279.7
2021-09-13T00:49:03,42.805,6.029,-0.029,-0.005,-0.013,100.0,101.0,101.0,13.4,1505.2,329.6,-0.8,1.8,2470.624,13.28,0.029,260.2
2021-09-13T00:52:03,42.805,6.029,-0.033,-0.018,-0.032,101.0,101.0,101.0,13.4,1505.2,329.6,-0.8,1.8,2470.625,13.28,0.037,241.4
2021-09-13T00:55:03,42.805,6.029,-0.057,-0.015,-0.019,100.0,100.0,101.0,13.4,1505.2,326.1,-0.7,1.8,2470.658,13.28,0.058,255.3
2021-09-13T00:58:03,42.805,6.029,-0.027,-0.016,-0.008,101.0,101.0,100.0,13.4,1505.2,325.5,-0.7,1.8,2470.678,13.28,0.031,239.3
2021-09-13T01:04:03,42.805,6.029,-0.018,-0.032,-0.041,102.0,104.0,102.0,13.3,1505.2,327.2,-0.8,1.8,2470.671,13.28,0.036,209.4
2021-09-13T01:07:03,42.805,6.029,-0.039,-0.017,-0.006,101.0,102.0,102.0,13.3,1505.2,330.5,-0.7,1.9,2470.613,13.28,0.042,246.5
2021-09-13T01:10:03,42.805,6.029,-0.032,-0.015,-0.016,101.0,101.0,99.0,13.4,1505.2,327.2,-0.8,1.9,2470.669,13.28,0.035,244.9
2021-09-13T01:13:03,42.805,6.029,-0.029,-0.004,-0.009,101.0,101.0,100.0,13.3,1505.2,326.4,-0.7,1.8,2470.673,13.28,0.029,262.2
2021-09-13T01:16:03,42.805,6.029,-0.032,-0.005,-0.023,100.0,102.0,101.0,13.4,1505.2,326.8,-0.7,1.8,2470.693,13.28,0.032,261.1
2021-09-13T01:19:03,42.805,6.029,-0.052,0.01,0.002,101.0,101.0,100.0,13.4,1505.2,325.4,-0.8,1.8,2470.642,13.28,0.052,280.9
2021-09-13T01:22:03,42.805,6.029,-0.055,-0.013,-0.039,102.0,102.0,99.0,13.4,1505.2,330.3,-0.8,1.8,2470.673,13.28,0.056,256.7
2021-09-13T01:25:03,42.805,6.029,-0.044,-0.016,-0.033,101.0,100.0,100.0,13.3,1505.2,329.1,-0.8,1.8,2470.682,13.28,0.046,250.0
2021-09-13T01:28:03,42.805,6.029,-0.046,0.015,-0.01,99.0,101.0,101.0,13.3,1505.2,331.3,-0.8,1.8,2470.686,13.28,0.048,288.1
2021-09-13T01:31:03,42.805,6.029,-0.067,-0.007,-0.055,101.0,100.0,100.0,13.4,1505.2,325.4,-0.7,1.9,2470.633,13.28,0.067,264.0
2021-09-13T01:34:03,42.805,6.029,-0.041,-0.019,-0.053,101.0,100.0,100.0,13.4,1505.2,329.9,-0.8,1.8,2470.666,13.28,0.045,245.1
2021-09-13T01:37:03,42.805,6.029,-0.042,0.014,-0.02,100.0,101.0,99.0,13.3,1505.2,331.3,-0.7,1.8,2470.649,13.28,0.044,288.4
2021-09-13T01:40:03,42.805,6.029,-0.016,-0.016,-0.021,101.0,100.0,101.0,13.4,1505.2,325.8,-0.8,1.8,2470.624,13.28,0.022,225.0
2021-09-13T01:43:03,42.805,6.029,-0.027,-0.009,-0.004,101.0,101.0,100.0,13.3,1505.2,329.9,-0.7,1.8,2470.633,13.28,0.028,251.6
2021-09-13T01:46:03,42.805,6.029,-0.045,-0.016,-0.035,101.0,100.0,100.0,13.4,1505.2,328.4,-0.8,1.8,2470.595,13.28,0.047,250.4
2021-09-13T01:49:03,42.805,6.029,-0.037,-0.017,-0.061,103.0,100.0,100.0,13.4,1505.2,328.1,-0.8,1.8,2470.618,13.28,0.04,245.3
2021-09-13T01:52:03,42.805,6.029,-0.017,-0.012,-0.035,99.0,100.0,100.0,13.3,1505.2,328.2,-0.8,1.8,2470.586,13.28,0.02,234.8
2021-09-13T01:55:03,42.805,6.029,-0.052,0.002,-0.029,101.0,99.0,101.0,13.4,1505.2,327.4,-0.8,1.8,2470.649,13.28,0.052,272.2
2021-09-13T01:58:03,42.805,6.029,-0.025,-0.004,0.0,101.0,102.0,100.0,13.3,1505.2,329.1,-0.8,1.8,2470.593,13.28,0.025,260.9
2021-09-13T02:04:03,42.805,6.029,-0.063,-0.002,-0.04,101.0,102.0,101.0,13.4,1505.2,327.8,-0.7,1.8,2470.677,13.28,0.063,268.2
2021-09-13T02:07:03,42.805,6.029,-0.04,0.0,-0.024,101.0,100.0,100.0,13.4,1505.2,326.0,-0.8,1.8,2470.641,13.28,0.04,270.0
2021-09-13T02:10:03,42.805,6.029,-0.05,-0.011,-0.036,102.0,100.0,99.0,13.3,1505.2,330.3,-0.7,1.8,2470.648,13.28,0.051,257.6
2021-09-13T02:13:03,42.805,6.029,-0.052,-0.006,-0.016,103.0,99.0,100.0,13.4,1505.2,327.5,-0.7,1.8,2470.643,13.28,0.052,263.4
2021-09-13T02:16:03,42.805,6.029,-0.032,0.0,-0.017,102.0,101.0,99.0,13.4,1505.2,326.0,-0.8,1.8,2470.649,13.28,0.032,270.0
2021-09-13T02:19:03,42.805,6.029,-0.052,0.005,-0.02,101.0,100.0,102.0,13.4,1505.2,325.3,-0.7,1.8,2470.586,13.28,0.052,275.5
2021-09-13T02:22:03,42.805,6.029,-0.024,-0.002,-0.029,102.0,101.0,100.0,13.4,1505.2,330.6,-0.8,1.8,2470.63,13.28,0.024,265.2
2021-09-13T02:25:03,42.805,6.029,-0.05,0.0,-0.058,100.0,101.0,101.0,13.4,1505.2,327.8,-0.7,1.9,2470.633,13.28,0.05,270.0
2021-09-13T02:28:03,42.805,6.029,-0.03,-0.008,-0.012,100.0,102.0,99.0,13.3,1505.2,328.9,-0.8,1.8,2470.645,13.28,0.031,255.1
2021-09-13T02:31:03,42.805,6.029,-0.04,-0.007,-0.017,101.0,100.0,100.0,13.4,1505.2,326.9,-0.7,1.8,2470.567,13.28,0.04,260.1
2021-09-13T02:34:03,42.805,6.029,-0.026,-0.011,0.0,100.0,100.0,101.0,13.3,1505.2,325.7,-0.8,1.8,2470.616,13.28,0.028,247.1
2021-09-13T02:37:03,42.805,6.029,-0.062,0.002,-0.005,100.0,101.0,100.0,13.4,1505.2,330.3,-0.7,1.8,2470.558,13.28,0.062,271.8
2021-09-13T02:40:03,42.805,6.029,-0.053,0.008,-0.015,101.0,100.0,99.0,13.4,1505.2,329.8,-0.7,1.9,2470.63,13.28,0.053,278.6
2021-09-13T02:43:03,42.805,6.029,-0.028,-0.011,-0.027,101.0,100.0,101.0,13.4,1505.2,329.5,-0.8,1.8,2470.583,13.28,0.03,248.6
2021-09-13T02:46:03,42.805,6.029,-0.052,-0.006,-0.057,101.0,100.0,100.0,13.3,1505.2,330.5,-0.8,1.8,2470.593,13.28,0.052,263.4
2021-09-13T02:49:03,42.805,6.029,-0.052,-0.013,0.011,100.0,101.0,101.0,13.4,1505.2,325.6,-0.8,1.8,2470.615,13.28,0.053,256.0
2021-09-13T02:52:03,42.805,6.029,-0.041,0.014,0.003,100.0,101.0,101.0,13.4,1505.2,329.4,-0.7,1.8,2470.579,13.28,0.043,288.9
2021-09-13T02:55:03,42.805,6.029,-0.043,-0.012,-0.053,101.0,101.0,99.0,13.3,1505.2,327.1,-0.7,1.9,2470.591,13.28,0.044,254.4
2021-09-13T02:58:03,42.805,6.029,-0.053,0.001,-0.03,102.0,99.0,101.0,13.3,1505.2,328.2,-0.7,1.8,2470.585,13.28,0.053,271.1
2021-09-13T03:04:03,42.805,6.029,-0.028,-0.014,-0.028,101.0,101.0,101.0,13.4,1505.2,328.7,-0.8,1.8,2470.635,13.28,0.031,243.4
2021-09-13T03:07:03,42.805,6.029,0.004,-0.012,0.008,101.0,101.0,100.0,13.4,1505.2,327.9,-0.8,1.8,2470.627,13.28,0.012,161.6
2021-09-13T03:10:03,42.805,6.029,-0.047,-0.024,-0.053,101.0,100.0,101.0,13.4,1505.2,326.1,-0.8,1.8,2470.64,13.28,0.052,243.0
2021-09-13T03:13:03,42.805,6.029,-0.026,0.001,-0.004,100.0,101.0,100.0,13.3,1505.2,327.2,-0.8,1.9,2470.607,13.28,0.026,272.2
2021-09-13T03:16:03,42.805,6.029,-0.036,-0.018,-0.017,101.0,102.0,100.0,13.4,1505.2,328.8,-0.7,1.8,2470.639,13.28,0.04,243.4
2021-09-13T03:19:03,42.805,6.029,-0.036,-0.008,-0.013,102.0,99.0,101.0,13.4,1505.2,326.4,-0.7,1.8,2470.548,13.28,0.036,257.5
2021-09-13T03:22:03,42.805,6.029,-0.053,-0.005,-0.002,101.0,100.0,100.0,13.4,1505.2,326.5,-0.7,1.8,2470.593,13.28,0.053,264.6
2021-09-13T03:25:03,42.805,6.029,-0.035,-0.012,-0.033,101.0,100.0,100.0,13.4,1505.2,330.3,-0.8,1.8,2470.589,13.28,0.037,251.1
2021-09-13T03:28:03,42.805,6.029,-0.023,-0.023,-0.016,101.0,100.0,101.0,13.4,1505.2,326.9,-0.7,1.8,2470.602,13.28,0.032,225.0
2021-09-13T03:31:03,42.805,6.029,-0.031,0.013,-0.025,101.0,102.0,100.0,13.3,1505.2,329.3,-0.7,1.8,2470.58,13.28,0.033,292.7
2021-09-13T03:34:03,42.805,6.029,-0.055,0.003,-0.03,101.0,101.0,101.0,13.4,1505.2,328.5,-0.8,1.8,2470.558,13.28,0.055,273.1
2021-09-13T03:37:03,42.805,6.029,-0.036,-0.024,-0.009,101.0,100.0,101.0,13.4,1505.2,326.2,-0.8,1.8,2470.566,13.28,0.043,236.3
2021-09-13T03:40:03,42.805,6.029,-0.043,-0.009,-0.054,101.0,101.0,101.0,13.4,1505.2,330.8,-0.8,1.8,2470.552,13.28,0.043,258.2
2021-09-13T03:43:03,42.805,6.029,-0.065,-0.013,-0.059,101.0,101.0,100.0,13.4,1505.2,325.5,-0.8,1.8,2470.597,13.28,0.066,258.7
2021-09-13T03:46:03,42.805,6.029,-0.039,0.002,0.005,101.0,101.0,100.0,13.3,1505.2,328.4,-0.8,1.8,2470.538,13.28,0.039,272.9
2021-09-13T03:49:03,42.805,6.029,-0.067,-0.017,-0.041,102.0,100.0,101.0,13.4,1505.2,328.3,-0.8,1.8,2470.563,13.28,0.069,255.8
2021-09-13T03:52:03,42.805,6.029,-0.049,-0.001,-0.03,102.0,100.0,101.0,13.4,1505.2,329.1,-0.7,1.8,2470.549,13.28,0.049,268.8
2021-09-13T03:55:03,42.805,6.029,-0.027,-0.012,-0.013,101.0,101.0,100.0,13.3,1505.2,327.5,-0.8,1.8,2470.592,13.28,0.029,246.0
2021-09-13T03:58:03,42.805,6.029,-0.03,-0.001,-0.011,100.0,102.0,101.0,13.3,1505.2,328.0,-0.8,1.8,2470.577,13.28,0.03,268.1
2021-09-13T04:04:03,42.805,6.029,-0.04,0.003,-0.022,101.0,101.0,100.0,13.3,1505.2,330.5,-0.7,1.8,2470.636,13.28,0.04,274.3
2021-09-13T04:07:03,42.805,6.029,-0.052,-0.017,-0.041,102.0,100.0,101.0,13.3,1505.2,327.8,-0.7,1.8,2470.578,13.28,0.054,251.9
2021-09-13T04:10:03,42.805,6.029,-0.041,-0.006,-0.039,101.0,101.0,100.0,13.4,1505.2,325.7,-0.7,1.8,2470.589,13.28,0.041,261.7
2021-09-13T04:13:03,42.805,6.029,-0.046,0.005,-0.007,101.0,101.0,101.0,13.4,1505.2,327.2,-0.7,1.8,2470.576,13.28,0.046,276.2
2021-09-13T04:16:03,42.805,6.029,-0.037,-0.004,-0.041,101.0,100.0,100.0,13.4,1505.2,327.3,-0.8,1.8,2470.56,13.28,0.037,263.8
2021-09-13T04:19:03,42.805,6.029,-0.047,0.004,-0.044,101.0,101.0,100.0,13.3,1505.2,329.4,-0.8,1.8,2470.597,13.28,0.047,274.9
2021-09-13T04:22:03,42.805,6.029,-0.051,0.017,-0.033,101.0,103.0,99.0,13.4,1505.2,325.7,-0.8,1.8,2470.56,13.28,0.053,288.4
2021-09-13T04:25:03,42.805,6.029,-0.03,0.0,-0.004,101.0,100.0,101.0,13.3,1505.2,328.1,-0.7,1.8,2470.579,13.28,0.03,270.0
2021-09-13T04:28:03,42.805,6.029,-0.045,0.004,-0.015,101.0,100.0,101.0,13.3,1505.2,330.6,-0.8,1.8,2470.558,13.28,0.045,275.1
2021-09-13T04:31:03,42.805,6.029,-0.034,-0.011,-0.039,102.0,100.0,100.0,13.4,1505.2,329.7,-0.8,1.8,2470.553,13.28,0.035,252.1
2021-09-13T04:34:03,42.805,6.029,-0.04,-0.004,-0.035,102.0,100.0,100.0,13.4,1505.2,328.3,-0.8,1.8,2470.576,13.28,0.04,264.3
2021-09-13T04:37:03,42.805,6.029,-0.05,-0.018,-0.041,101.0,100.0,102.0,13.4,1505.2,327.5,-0.8,1.9,2470.547,13.28,0.053,250.2
2021-09-13T04:40:03,42.805,6.029,-0.028,0.0,-0.009,101.0,102.0,101.0,13.3,1505.2,328.3,-0.8,1.8,2470.533,13.28,0.028,270.0
2021-09-13T04:43:03,42.805,6.029,-0.082,-0.014,-0.037,102.0,101.0,100.0,13.4,1505.2,326.5,-0.8,1.8,2470.561,13.28,0.083,260.3
2021-09-13T04:46:03,42.805,6.029,-0.046,-0.011,-0.044,101.0,99.0,101.0,13.4,1505.2,325.4,-0.8,1.8,2470.545,13.28,0.047,256.6
2021-09-13T04:49:03,42.805,6.029,-0.036,0.0,-0.059,101.0,101.0,100.0,13.4,1505.2,331.4,-0.7,1.8,2470.558,13.28,0.036,270.0
2021-09-13T04:52:03,42.805,6.029,-0.032,-0.004,-0.044,102.0,100.0,100.0,13.4,1505.2,327.0,-0.7,1.8,2470.546,13.28,0.032,262.9
2021-09-13T04:55:03,42.805,6.029,-0.036,-0.02,-0.033,102.0,102.0,100.0,13.4,1505.2,330.9,-0.7,1.8,2470.547,13.28,0.041,240.9
2021-09-13T04:58:03,42.805,6.029,-0.043,-0.004,0.02,101.0,101.0,100.0,13.4,1505.2,328.1,-0.8,1.8,2470.539,13.28,0.043,264.7
2021-09-13T05:04:03,42.805,6.029,-0.051,-0.025,-0.047,101.0,101.0,100.0,13.3,1505.2,328.2,-0.7,1.9,2470.605,13.28,0.056,243.9
2021-09-13T05:07:03,42.805,6.029,-0.035,0.007,-0.01,102.0,100.0,100.0,13.4,1505.2,330.3,-0.8,1.8,2470.6,13.28,0.035,281.3
2021-09-13T05:10:03,42.805,6.029,-0.032,-0.011,-0.03,99.0,102.0,100.0,13.4,1505.2,327.5,-0.8,1.9,2470.582,13.28,0.033,251.0
2021-09-13T05:13:03,42.805,6.029,-0.03,0.001,-0.017,101.0,101.0,100.0,13.4,1505.2,328.5,-0.8,1.8,2470.588,13.28,0.03,271.9
2021-09-13T05:16:03,42.805,6.029,-0.075,-0.002,-0.036,101.0,101.0,100.0,13.4,1505.2,328.1,-0.8,1.8,2470.553,13.28,0.075,268.5
2021-09-13T05:19:03,42.805,6.029,-0.065,-0.001,-0.053,100.0,102.0,100.0,13.4,1505.2,326.6,-0.8,1.8,2470.607,13.28,0.065,269.1
2021-09-13T05:22:03,42.805,6.029,-0.028,0.005,-0.014,101.0,100.0,101.0,13.3,1505.2,331.4,-0.7,1.8,2470.565,13.28,0.028,280.1
2021-09-13T05:25:03,42.805,6.029,-0.04,0.008,-0.005,102.0,100.0,101.0,13.3,1505.2,326.0,-0.8,1.8,2470.558,13.28,0.04,281.3
2021-09-13T05:28:03,42.805,6.029,-0.072,-0.009,-0.034,100.0,101.0,101.0,13.4,1505.2,328.9,-0.8,1.8,2470.548,13.28,0.072,262.9
2021-09-13T05:31:03,42.805,6.029,-0.051,-0.01,-0.027,101.0,101.0,100.0,13.3,1505.2,326.9,-0.7,1.8,2470.595,13.28,0.051,258.9
2021-09-13T05:34:03,42.805,6.029,-0.028,-0.013,-0.034,101.0,101.0,101.0,13.3,1505.2,329.8,-0.7,1.8,2470.563,13.28,0.03,245.1
2021-09-13T05:37:03,42.805,6.029,-0.051,-0.008,-0.009,101.0,99.0,100.0,13.4,1505.2,327.2,-0.8,1.8,2470.578,13.28,0.051,261.1
2021-09-13T05:40:03,42.805,6.029,-0.044,-0.021,-0.017,100.0,102.0,101.0,13.4,1505.2,327.3,-0.7,1.8,2470.546,13.28,0.048,244.5
2021-09-13T05:43:03,42.805,6.029,-0.025,-0.012,-0.003,101.0,101.0,100.0,13.4,1505.2,327.3,-0.7,1.8,2470.535,13.28,0.027,244.4
2021-09-13T05:46:03,42.805,6.029,-0.064,-0.012,-0.027,102.0,99.0,100.0,13.3,1505.2,326.8,-0.8,1.8,2470.533,13.28,0.065,259.4
2021-09-13T05:49:03,42.805,6.029,-0.059,-0.006,-0.004,100.0,101.0,101.0,13.3,1505.2,327.7,-0.8,1.8,2470.535,13.28,0.059,264.2
2021-09-13T05:52:03,42.805,6.029,-0.091,0.0,-0.029,101.0,100.0,101.0,13.4,1505.2,325.8,-0.7,1.9,2470.497,13.28,0.091,270.0
2021-09-13T05:55:03,42.805,6.029,-0.047,-0.022,-0.066,101.0,100.0,100.0,13.4,1505.2,325.8,-0.7,1.8,2470.533,13.28,0.051,244.9
2021-09-13T05:58:03,42.805,6.029,-0.03,-0.018,-0.028,101.0,100.0,101.0,13.4,1505.2,328.5,-0.7,1.8,2470.503,13.28,0.034,239.0
2021-09-13T06:04:03,42.805,6.029,-0.055,0.008,0.006,101.0,100.0,101.0,13.3,1505.2,326.7,-0.7,1.8,2470.591,13.28,0.055,278.3
2021-09-13T06:07:03,42.805,6.029,-0.037,-0.016,-0.032,100.0,102.0,100.0,13.4,1505.2,327.3,-0.8,1.8,2470.606,13.28,0.04,246.6
2021-09-13T06:10:03,42.805,6.029,-0.046,-0.007,-0.039,99.0,101.0,101.0,13.4,1505.2,326.6,-0.8,1.8,2470.552,13.28,0.046,261.3
2021-09-13T06:13:03,42.805,6.029,-0.056,-0.02,-0.058,101.0,100.0,101.0,13.3,1505.2,328.3,-0.7,1.8,2470.562,13.28,0.059,250.4
2021-09-13T06:16:03,42.805,6.029,-0.049,0.001,-0.002,100.0,101.0,101.0,13.3,1505.2,327.4,-0.8,1.9,2470.544,13.28,0.049,271.2
2021-09-13T06:19:03,42.805,6.029,-0.037,-0.013,-0.069,102.0,102.0,100.0,13.4,1505.2,326.7,-0.7,1.8,2470.593,13.28,0.039,250.6
2021-09-13T06:22:03,42.805,6.029,-0.06,-0.024,-0.03,100.0,101.0,101.0,13.4,1505.2,328.4,-0.8,1.8,2470.57,13.28,0.064,248.2
2021-09-13T06:25:03,42.805,6.029,-0.027,-0.038,-0.034,101.0,100.0,100.0,13.3,1505.2,329.4,-0.8,1.8,2470.56,13.28,0.046,215.4
2021-09-13T06:28:03,42.805,6.029,-0.083,0.006,-0.026,101.0,100.0,100.0,13.4,1505.2,326.3,-0.8,1.8,2470.56,13.28,0.083,274.1
2021-09-13T06:31:03,42.805,6.029,-0.028,-0.014,-0.038,101.0,100.0,101.0,13.4,1505.2,331.3,-0.8,1.8,2470.53,13.28,0.031,243.4
2021-09-13T06:34:03,42.805,6.029,-0.05,0.0,-0.03,102.0,101.0,100.0,13.4,1505.2,327.4,-0.8,1.8,2470.536,13.28,0.05,270.0
2021-09-13T06:37:03,42.805,6.029,-0.042,0.004,-0.02,101.0,101.0,100.0,13.4,1505.2,328.8,-0.7,1.8,2470.598,13.28,0.042,275.4
2021-09-13T06:40:03,42.805,6.029,-0.055,-0.007,-0.037,101.0,100.0,100.0,13.3,1505.2,325.6,-0.7,1.8,2470.555,13.28,0.055,262.7
2021-09-13T06:43:03,42.805,6.029,-0.049,-0.015,-0.021,102.0,100.0,100.0,13.3,1505.2,330.1,-0.7,1.9,2470.53,13.28,0.051,253.0
2021-09-13T06:46:03,42.805,6.029,-0.035,-0.022,-0.039,102.0,100.0,100.0,13.4,1505.2,328.2,-0.7,1.8,2470.563,13.28,0.041,237.8
2021-09-13T06:49:03,42.805,6.029,-0.023,-0.003,-0.026,101.0,100.0,101.0,13.3,1505.2,327.9,-0.7,1.8,2470.6,13.28,0.023,262.6
2021-09-13T06:52:03,42.805,6.029,-0.045,0.001,-0.009,101.0,101.0,100.0,13.4,1505.2,327.7,-0.7,1.8,2470.562,13.28,0.045,271.3
2021-09-13T06:55:03,42.805,6.029,-0.043,-0.012,-0.04,101.0,100.0,100.0,13.3,1505.2,325.3,-0.7,1.8,2470.548,13.28,0.044,254.4
2021-09-13T06:58:03,42.805,6.029,-0.041,-0.003,-0.013,100.0,100.0,101.0,13.3,1505.2,326.6,-0.8,1.8,2470.547,13.28,0.041,265.8
2021-09-13T07:04:03,42.805,6.029,-0.026,-0.005,0.002,101.0,101.0,100.0,13.4,1505.2,331.1,-0.7,1.8,2470.596,13.28,0.026,259.1
2021-09-13T07:07:03,42.805,6.029,-0.037,-0.006,-0.026,100.0,101.0,100.0,13.4,1505.2,331.3,-0.8,1.9,2470.576,13.28,0.037,260.8
2021-09-13T07:10:03,42.805,6.029,-0.006,-0.013,-0.047,99.0,102.0,100.0,13.4,1505.2,331.1,-0.7,1.8,2470.588,13.28,0.014,204.8
2021-09-13T07:13:03,42.805,6.029,-0.028,-0.018,-0.068,101.0,100.0,100.0,13.4,1505.2,329.7,-0.8,1.8,2470.598,13.28,0.033,237.3
2021-09-13T07:16:03,42.805,6.029,-0.062,-0.005,-0.046,101.0,100.0,100.0,13.3,1505.2,327.6,-0.8,1.8,2470.598,13.28,0.062,265.4
2021-09-13T07:19:03,42.805,6.029,-0.038,-0.018,-0.011,101.0,101.0,101.0,13.3,1505.2,325.7,-0.8,1.8,2470.549,13.28,0.042,244.7
2021-09-13T07:22:03,42.805,6.029,-0.022,0.003,-0.041,102.0,100.0,101.0,13.4,1505.2,331.0,-0.8,1.8,2470.529,13.28,0.022,277.8
2021-09-13T07:25:03,42.805,6.029,-0.033,0.012,0.011,101.0,100.0,100.0,13.4,1505.2,327.1,-0.8,1.8,2470.581,13.28,0.035,290.0
2021-09-13T07:28:03,42.805,6.029,-0.05,-0.025,-0.016,101.0,100.0,101.0,13.4,1505.2,327.1,-0.7,1.8,2470.547,13.28,0.055,243.4
2021-09-13T07:31:03,42.805,6.029,-0.02,-0.003,-0.015,102.0,100.0,100.0,13.4,1505.2,327.7,-0.7,1.8,2470.586,13.28,0.02,261.5
2021-09-13T07:34:03,42.805,6.029,-0.048,-0.02,-0.036,100.0,100.0,100.0,13.4,1505.2,330.2,-0.8,1.8,2470.565,13.28,0.052,247.4
2021-09-13T07:37:03,42.805,6.029,-0.058,-0.002,-0.052,100.0,100.0,100.0,13.4,1505.2,327.1,-0.8,1.8,2470.547,13.28,0.058,268.0
2021-09-13T07:40:03,42.805,6.029,-0.043,-0.007,-0.058,101.0,100.0,99.0,13.4,1505.2,329.0,-0.7,1.8,2470.547,13.28,0.043,260.8
2021-09-13T07:43:03,42.805,6.029,-0.025,-0.008,-0.032,100.0,102.0,100.0,13.3,1505.2,330.1,-0.8,1.8,2470.547,13.28,0.026,252.3
2021-09-13T07:46:03,42.805,6.029,-0.045,-0.001,-0.037,100.0,100.0,100.0,13.3,1505.2,325.5,-0.8,1.8,2470.597,13.28,0.045,268.7
2021-09-13T07:49:03,42.805,6.029,-0.04,-0.001,-0.047,100.0,99.0,100.0,13.3,1505.2,328.3,-0.7,1.8,2470.586,13.28,0.04,268.6
2021-09-13T07:52:03,42.805,6.029,-0.039,-0.019,-0.018,100.0,100.0,100.0,13.4,1505.2,328.1,-0.8,1.8,2470.6,13.28,0.043,244.0
2021-09-13T07:55:03,42.805,6.029,-0.049,-0.004,-0.022,101.0,101.0,99.0,13.4,1505.2,327.3,-0.7,1.8,2470.605,13.28,0.049,265.3
2021-09-13T07:58:03,42.805,6.029,-0.02,0.0,-0.011,100.0,102.0,98.0,13.4,1505.2,327.8,-0.8,1.8,2470.628,13.28,0.02,270.0
2021-09-13T08:04:03,42.805,6.029,-0.034,-0.002,-0.023,100.0,101.0,100.0,13.4,1505.2,327.4,-0.8,1.9,2470.648,13.28,0.034,266.6
2021-09-13T08:07:03,42.805,6.029,-0.073,0.004,-0.038,101.0,101.0,100.0,13.4,1505.2,329.2,-0.7,1.8,2470.591,13.28,0.073,273.1
2021-09-13T08:10:03,42.805,6.029,-0.073,-0.008,-0.048,101.0,102.0,100.0,13.4,1505.2,325.8,-0.7,1.9,2470.645,13.28,0.073,263.7
2021-09-13T08:13:03,42.805,6.029,-0.054,0.005,-0.058,101.0,99.0,100.0,13.3,1505.2,331.4,-0.8,1.8,2470.642,13.28,0.054,275.3
2021-09-13T08:16:03,42.805,6.029,-0.052,-0.014,-0.011,102.0,100.0,100.0,13.3,1505.2,327.0,-0.8,1.8,2470.613,13.28,0.053,254.9
2021-09-13T08:19:03,42.805,6.029,-0.061,-0.007,-0.052,100.0,101.0,100.0,13.3,1505.2,327.3,-0.7,1.8,2470.618,13.28,0.061,263.5
2021-09-13T08:22:03,42.805,6.029,-0.069,-0.007,-0.034,100.0,101.0,101.0,13.3,1505.2,329.5,-0.8,1.8,2470.602,13.28,0.069,264.2
2021-09-13T08:25:03,42.805,6.029,-0.047,0.004,-0.029,102.0,101.0,99.0,13.4,1505.2,329.2,-0.7,1.8,2470.641,13.28,0.047,274.9
2021-09-13T08:28:03,42.805,6.029,-0.045,-0.004,-0.017,101.0,101.0,100.0,13.3,1505.2,329.9,-0.8,1.8,2470.62,13.28,0.045,264.9
2021-09-13T08:31:03,42.805,6.029,-0.045,-0.002,-0.033,102.0,99.0,100.0,13.4,1505.2,327.1,-0.8,1.8,2470.596,13.28,0.045,267.5
2021-09-13T08:34:03,42.805,6.029,-0.045,-0.012,-0.015,101.0,100.0,101.0,13.4,1505.2,325.7,-0.8,1.8,2470.602,13.28,0.046,255.1
2021-09-13T08:37:03,42.805,6.029,-0.043,0.017,-0.019,100.0,102.0,99.0,13.4,1505.2,330.4,-0.8,1.8,2470.627,13.28,0.046,291.6
2021-09-13T08:40:03,42.805,6.029,-0.069,-0.008,-0.032,101.0,101.0,100.0,13.4,1505.2,328.0,-0.8,1.8,2470.601,13.28,0.069,263.4
2021-09-13T08:43:03,42.805,6.029,-0.073,0.004,-0.035,101.0,100.0,100.0,13.3,1505.2,328.2,-0.7,1.8,2470.598,13.28,0.073,273.1
2021-09-13T08:46:03,42.805,6.029,-0.033,0.001,-0.039,101.0,102.0,100.0,13.3,1505.2,325.6,-0.8,1.8,2470.657,13.28,0.033,271.7
2021-09-13T08:49:03,42.805,6.029,-0.06,0.007,-0.016,102.0,101.0,100.0,13.3,1505.2,330.7,-0.8,1.8,2470.641,13.28,0.06,276.7
2021-09-13T08:52:03,42.805,6.029,-0.053,-0.014,-0.044,102.0,100.0,99.0,13.3,1505.2,327.2,-0.8,1.8,2470.6,13.28,0.054,255.2
2021-09-13T08:55:03,42.805,6.029,-0.063,-0.011,-0.031,101.0,101.0,100.0,13.4,1505.2,330.0,-0.8,1.8,2470.63,13.28,0.063,260.1
2021-09-13T08:58:03,42.805,6.029,-0.035,-0.016,-0.014,101.0,100.0,101.0,13.4,1505.2,326.5,-0.7,1.8,2470.614,13.28,0.038,245.4
2021-09-13T09:04:03,42.805,6.029,-0.044,-0.017,-0.083,101.0,101.0,100.0,13.3,1505.2,329.7,-0.7,1.8,2470.659,13.28,0.047,248.9
2021-09-13T09:07:03,42.805,6.029,-0.057,-0.013,-0.064,101.0,100.0,101.0,13.4,1505.2,326.7,-0.7,1.9,2470.673,13.28,0.058,257.2
2021-09-13T09:10:03,42.805,6.029,-0.052,0.0,-0.013,101.0,100.0,101.0,13.4,1505.2,327.0,-0.7,1.8,2470.655,13.28,0.052,270.0
2021-09-13T09:13:03,42.805,6.029,-0.022,0.02,0.011,100.0,101.0,100.0,13.4,1505.2,329.6,-0.8,1.8,2470.656,13.28,0.029,312.3
2021-09-13T09:16:03,42.805,6.029,-0.037,-0.007,-0.006,102.0,100.0,101.0,13.3,1505.2,327.7,-0.8,1.8,2470.64,13.28,0.037,259.3
2021-09-13T09:19:03,42.805,6.029,-0.027,-0.014,-0.062,102.0,101.0,100.0,13.4,1505.2,327.5,-0.8,1.8,2470.661,13.28,0.03,242.6
2021-09-13T09:22:03,42.805,6.029,-0.029,0.005,-0.058,101.0,100.0,100.0,13.4,1505.2,326.7,-0.7,1.8,2470.655,13.28,0.029,279.8
2021-09-13T09:25:03,42.805,6.029,-0.051,-0.008,-0.041,102.0,101.0,101.0,13.4,1505.2,329.7,-0.7,1.8,2470.662,13.28,0.051,261.1
2021-09-13T09:28:03,42.805,6.029,-0.052,-0.018,-0.051,103.0,99.0,99.0,13.4,1505.2,327.5,-0.7,1.8,2470.662,13.28,0.055,250.9
2021-09-13T09:31:03,42.805,6.029,-0.058,-0.011,-0.017,101.0,101.0,100.0,13.4,1505.2,329.0,-0.8,1.8,2470.64,13.28,0.059,259.3
2021-09-13T09:34:03,42.805,6.029,-0.036,-0.016,-0.048,101.0,101.0,100.0,13.4,1505.2,327.1,-0.8,1.8,2470.644,13.28,0.039,246.0
2021-09-13T09:37:03,42.805,6.029,-0.039,0.012,-0.037,101.0,101.0,100.0,13.4,1505.2,329.7,-0.8,1.8,2470.643,13.28,0.04,287.1
2021-09-13T09:40:03,42.805,6.029,-0.064,0.004,-0.022,102.0,102.0,100.0,13.3,1505.2,325.7,-0.7,1.8,2470.7,13.28,0.064,273.6
2021-09-13T09:43:03,42.805,6.029,-0.012,-0.006,0.003,101.0,99.0,101.0,13.4,1505.2,330.0,-0.8,1.8,2470.637,13.28,0.013,243.4
2021-09-13T09:46:03,42.805,6.029,-0.047,0.007,-0.042,100.0,102.0,100.0,13.4,1505.2,330.5,-0.8,1.8,2470.687,13.28,0.047,278.5
2021-09-13T09:49:03,42.805,6.029,-0.04,0.011,-0.025,102.0,100.0,99.0,13.4,1505.2,328.2,-0.8,1.8,2470.647,13.28,0.041,285.4
2021-09-13T09:52:03,42.805,6.029,-0.041,-0.006,-0.045,101.0,100.0,100.0,13.3,1505.2,328.4,-0.7,1.8,2470.648,13.28,0.041,261.7